[[{"header":{"parameterUnit":"m.s-1","parameterCategory":2,"la1":30.2991,"la2":30.254,"lo1":-89.0895,"lo2":-89.0444,"dx":0.0017,"dy":0.0017,"nx":28,"ny":28,"refTime":"2022-11-07T03:00:00:Z","depth":"0","parameterNumber":2,"parameterNumberName":"U-component_of_CURRENTS"},"data":[0,0,0,0,0,0,0,0,0,0,0,0,0,0,0,0,0,0,0,0,0,0,0,0,0,0,0,0,0,0,0,0,0,0,0,0,0,0,0,0,0,0,0,0,0,0,0,0,0,0,0,0,0,0,0,0,0,0,0.2896,0.2896,0,0.293,0.293,0.293,0.2927,0.2927,0.2927,0.2927,0.2955,0.2956,0.2957,0,0,0,0,0,0,0,0,0,0,0,0,0,0.2803,0.2804,0.2896,0.2896,0.2897,0.293,0.293,0.293,0.2928,0.2927,0.2927,0.2927,0.2955,0.2956,0.2957,0,0,0,0,0,0,0,0,0,0,0,0,0,0.2838,0.2805,0.2895,0.2901,0.2903,0.293,0.293,0.2931,0.2928,0.2927,0.2927,0.2926,0.2954,0.2956,0.2957,0.2975,0,0,0.2962,0.2963,0,0,0,0,0,0,0,0,0.2836,0.2841,0.29,0.2901,0.2902,0.2926,0.2908,0.2946,0.2928,0.2915,0.2927,0.2926,0.2947,0.2949,0.2953,0.2976,0.2977,0.2962,0.2963,0.2964,0.2964,0,0,0,0,0,0,0,0.2834,0.2839,0.2906,0.2901,0.2902,0.2894,0.2899,0.2915,0.2931,0.2916,0.2917,0.2925,0.2947,0.2951,0.2953,0.2978,0.2962,0.2963,0.2964,0.2965,0.3034,0.3035,0,0,0,0,0,0,0.2837,0.2838,0.2905,0.2908,0.2871,0.2897,0.2901,0.2917,0.2931,0.2933,0.2925,0.2925,0.2949,0.2952,0.2954,0.3005,0.2964,0.2965,0.2966,0.3033,0.3034,0.3035,0,0,0,0,0,0,0.2835,0.2843,0.2904,0.2875,0.2882,0.2899,0.2916,0.2918,0.2925,0.2938,0.294,0.2931,0.2949,0.2952,0.2974,0.3005,0.2966,0.2967,0.3032,0.3034,0.3035,0.3088,0,0,0,0,0,0,0.2832,0.2842,0.2854,0.2876,0.2884,0.2932,0.2917,0.2919,0.2932,0.2931,0.2944,0.2946,0.2949,0.2972,0.2976,0.3007,0.2968,0.3031,0.3033,0.3034,0.3085,0.3091,0.3097,0,0,0,0,0,0.2829,0.2844,0.2855,0.2863,0.2901,0.2933,0.2937,0.2944,0.2932,0.2946,0.2948,0.2946,0.2986,0.2974,0.2978,0.301,0.303,0.3032,0.3034,0.3083,0.309,0.3096,0,0,0,0,0,0,0.2816,0.2846,0.2858,0.2884,0.2914,0.2934,0.2941,0.2948,0.2959,0.2953,0.2957,0.2961,0.2993,0.2991,0.2977,0.3034,0.3008,0.3011,0.3044,0.305,0.3056,0.307,0.297,0,0,0,0,0,0.282,0.2833,0.2871,0.2893,0.2905,0.2924,0.2936,0.2945,0.2959,0.2963,0.2972,0.2981,0.3005,0.3017,0.3032,0.3063,0.3088,0.3085,0.3091,0.3095,0.3109,0.3154,0.3166,0.3042,0.3042,0.3042,0,0,0.2823,0.2839,0.285,0.289,0.2905,0.2939,0.2929,0.2951,0.2983,0.2965,0.2997,0.3001,0.3016,0.3052,0.3067,0.3055,0.315,0.3098,0.3102,0.3114,0.3158,0.317,0.3181,0.3044,0.3043,0.3043,0,0,0.2834,0.2849,0.2868,0.2894,0.2926,0.2944,0.2953,0.2979,0.2993,0.3028,0.3025,0.3047,0.3074,0.3098,0.3113,0.3158,0.3176,0.3159,0.3204,0.3248,0.3259,0.3269,0.3346,0.3362,0.3164,0.3164,0.3164,0,0.2838,0.287,0.288,0.2909,0.2933,0.2949,0.2984,0.3009,0.304,0.3062,0.3044,0.3097,0.3103,0.3165,0.3179,0.3174,0.3209,0.3178,0.3257,0.3267,0.3276,0.3353,0.337,0.3167,0.3166,0.3166,0.3166,0,0.2868,0.2898,0.2909,0.2953,0.2981,0.3009,0.3051,0.3082,0.3093,0.3118,0.3169,0.3176,0.3213,0.3217,0.3214,0.3285,0.3295,0.3258,0.3242,0.3292,0.337,0.3387,0.3171,0.317,0.3169,0.3168,0,0,0.2865,0.2919,0.2926,0.2956,0.3004,0.3033,0.3091,0.3153,0.3195,0.322,0.3277,0.331,0.3309,0.3326,0.3325,0.3356,0.3455,0.3338,0.3339,0.3421,0.3587,0.3676,0.3703,0.343,0.3432,0.3434,0.3627,0,0.2889,0.2944,0.2967,0.3031,0.3065,0.3104,0.3161,0.3218,0.3252,0.331,0.3336,0.3379,0.3355,0.3371,0.3407,0.3444,0.3498,0.3409,0.3521,0.3526,0.3603,0.3725,0.3595,0.3763,0.3643,0.3646,0.3648,0,0.291,0.2947,0.3004,0.3078,0.3097,0.314,0.3225,0.3277,0.3363,0.3388,0.3439,0.3457,0.3538,0.3481,0.3606,0.3552,0.3582,0.3599,0.3606,0.3682,0.3647,0.3687,0.3798,0.3699,0.3674,0.3672,0.367,0,0.2896,0.2972,0.3015,0.3039,0.3126,0.3167,0.3217,0.3299,0.3358,0.3437,0.3493,0.3563,0.3627,0.3668,0.374,0.3674,0.3873,0.3782,0.3899,0.3906,0.3817,0.3813,0.3848,0.3864,0.3864,0.3863,0.3863,0,0.2904,0.2941,0.3014,0.304,0.3103,0.3166,0.3239,0.3297,0.3399,0.3473,0.3533,0.3625,0.3672,0.3792,0.3807,0.3962,0.3946,0.3958,0.3976,0.3837,0.3833,0.3758,0.3704,0.3871,0.3869,0.3868,0.3866,0,0.2877,0.2922,0.2976,0.3066,0.3093,0.3137,0.3249,0.331,0.3412,0.3517,0.3554,0.3716,0.3888,0.3972,0.4076,0.4089,0.409,0.4222,0.409,0.409,0.4088,0.4042,0.3977,0.3857,0.4384,0.4388,0.4391,0,0.2866,0.289,0.2974,0.3004,0.3042,0.3117,0.3174,0.3287,0.3354,0.3575,0.3632,0.3858,0.399,0.4253,0.433,0.4451,0.4244,0.4377,0.422,0.4132,0.4092,0.3874,0.3757,0.4125,0.4126,0.4126,0.4127,0,0.2845,0.2868,0.2912,0.2974,0.3028,0.3091,0.318,0.3233,0.3378,0.3504,0.3694,0.3829,0.4141,0.4249,0.4458,0.4484,0.4185,0.4396,0.4303,0.3929,0.369,0.3567,0.398,0.4131,0.4131,0.413,0.413,0.413,0.2815,0.2836,0.2888,0.294,0.2994,0.304,0.3059,0.3173,0.3283,0.3438,0.3647,0.3828,0.4059,0.4365,0.438,0.4375,0.4297,0.4234,0.4204,0.4005,0.3827,0.431,0.4479,0.4481,0.4482,0.4483,0.4484,0,0.2773,0.2802,0.2855,0.2895,0.2914,0.2975,0.3044,0.305,0.3125,0.334,0.3506,0.3778,0.3936,0.4086,0.4251,0.417,0.3885,0.4062,0.366,0.3566,0.4007,0.3934,0.3994,0.3994,0.3994,0.3994,0.3994,0.3995,0.2751,0.2769,0.28,0.2799,0.2826,0.2807,0.282,0.2851,0.2958,0.3123,0.3293,0.3487,0.3793,0.404,0.4029,0.3934,0.3602,0.3508,0.3464,0.3733,0.3741,0.3749,0.3666,0.3668,0.3668,0.2817,0.2811,0.2807]},{"header":{"parameterUnit":"m.s-1","parameterCategory":2,"la1":30.2991,"la2":30.254,"lo1":-89.0895,"lo2":-89.0444,"dx":0.0017,"dy":0.0017,"nx":28,"ny":28,"refTime":"2022-11-07T03:00:00:Z","depth":"0","parameterNumber":3,"parameterNumberName":"V-component_of_CURRENTS"},"data":[0,0,0,0,0,0,0,0,0,0,0,0,0,0,0,0,0,0,0,0,0,0,0,0,0,0,0,0,0,0,0,0,0,0,0,0,0,0,0,0,0,0,0,0,0,0,0,0,0,0,0,0,0,0,0,0,0,0,-0.0845,-0.0845,0,-0.0853,-0.0853,-0.0854,-0.0899,-0.09,-0.0901,-0.0902,-0.0915,-0.0915,-0.0914,0,0,0,0,0,0,0,0,0,0,0,0,0,-0.0832,-0.0832,-0.0845,-0.0845,-0.0845,-0.0853,-0.0854,-0.0854,-0.0899,-0.09,-0.0901,-0.0903,-0.0915,-0.0915,-0.0914,0,0,0,0,0,0,0,0,0,0,0,0,0,-0.084,-0.0832,-0.0845,-0.0868,-0.087,-0.0853,-0.0854,-0.0854,-0.0899,-0.09,-0.0902,-0.0903,-0.0916,-0.0915,-0.0914,-0.0879,0,0,-0.0911,-0.0911,0,0,0,0,0,0,0,0,-0.0839,-0.084,-0.0864,-0.0866,-0.0868,-0.0876,-0.0854,-0.0862,-0.0898,-0.0889,-0.0902,-0.0904,-0.09,-0.0901,-0.0901,-0.088,-0.0881,-0.0911,-0.0911,-0.091,-0.091,0,0,0,0,0,0,0,-0.0839,-0.084,-0.0849,-0.0864,-0.0866,-0.0865,-0.0868,-0.0855,-0.0887,-0.089,-0.0893,-0.0891,-0.0902,-0.0902,-0.0902,-0.0881,-0.0911,-0.0911,-0.091,-0.091,-0.0889,-0.0889,0,0,0,0,0,0,-0.0835,-0.0839,-0.0849,-0.085,-0.0856,-0.0864,-0.0868,-0.0873,-0.0888,-0.0891,-0.089,-0.0893,-0.0902,-0.0903,-0.0902,-0.0891,-0.091,-0.091,-0.0909,-0.0889,-0.0889,-0.0889,0,0,0,0,0,0,-0.0835,-0.0836,-0.0849,-0.0843,-0.0845,-0.0863,-0.0868,-0.0872,-0.0872,-0.0887,-0.0892,-0.0886,-0.0904,-0.0903,-0.0891,-0.0891,-0.0909,-0.0908,-0.0889,-0.0889,-0.0889,-0.0849,0,0,0,0,0,0,-0.0835,-0.0836,-0.0823,-0.0843,-0.0845,-0.0823,-0.0867,-0.0871,-0.0868,-0.0873,-0.0885,-0.0888,-0.0905,-0.0892,-0.089,-0.089,-0.0908,-0.0889,-0.0889,-0.0889,-0.085,-0.0847,-0.0845,0,0,0,0,0,-0.0834,-0.0794,-0.0822,-0.0823,-0.0832,-0.0821,-0.0821,-0.084,-0.0867,-0.0849,-0.0871,-0.0888,-0.0891,-0.089,-0.0888,-0.0888,-0.0889,-0.0889,-0.0889,-0.0851,-0.0848,-0.0845,0,0,0,0,0,0,-0.0759,-0.0796,-0.0827,-0.0796,-0.0809,-0.0828,-0.0801,-0.0831,-0.0833,-0.0836,-0.087,-0.0872,-0.0868,-0.0877,-0.0876,-0.0885,-0.0899,-0.0899,-0.0872,-0.0868,-0.0866,-0.0851,-0.0907,0,0,0,0,0,-0.0744,-0.0736,-0.0772,-0.0743,-0.0748,-0.078,-0.0774,-0.0794,-0.0805,-0.0808,-0.0829,-0.0849,-0.0863,-0.0865,-0.0872,-0.0858,-0.0878,-0.0864,-0.0861,-0.0859,-0.0846,-0.0895,-0.0895,-0.0888,-0.0888,-0.0888,0,0,-0.0709,-0.0722,-0.072,-0.0729,-0.0739,-0.0733,-0.0779,-0.0761,-0.0764,-0.0806,-0.0803,-0.083,-0.0857,-0.0856,-0.0856,-0.0864,-0.0867,-0.0858,-0.0856,-0.0845,-0.0895,-0.0895,-0.0896,-0.0888,-0.0888,-0.0888,0,0,-0.0629,-0.0648,-0.0623,-0.0629,-0.064,-0.0669,-0.0666,-0.0693,-0.0712,-0.0712,-0.0759,-0.0784,-0.0791,-0.0825,-0.0841,-0.0823,-0.0851,-0.0831,-0.0802,-0.0849,-0.085,-0.0851,-0.086,-0.0862,-0.0831,-0.0831,-0.083,0,-0.0587,-0.0568,-0.0607,-0.0581,-0.0579,-0.0643,-0.0619,-0.0642,-0.0666,-0.0677,-0.0702,-0.0753,-0.078,-0.0803,-0.0809,-0.0817,-0.0834,-0.0811,-0.0846,-0.0847,-0.0849,-0.0858,-0.0861,-0.0829,-0.0829,-0.0829,-0.0829,0,-0.0502,-0.0487,-0.046,-0.0476,-0.0478,-0.0454,-0.0509,-0.0523,-0.0567,-0.0601,-0.0631,-0.0683,-0.0716,-0.0743,-0.0768,-0.0799,-0.0802,-0.0836,-0.0852,-0.0847,-0.0857,-0.086,-0.0826,-0.0827,-0.0827,-0.0828,0,0,-0.0413,-0.041,-0.04,-0.0399,-0.0421,-0.0417,-0.0427,-0.0458,-0.0464,-0.0519,-0.0529,-0.0597,-0.0641,-0.0663,-0.0716,-0.0767,-0.08,-0.0801,-0.0805,-0.0804,-0.0874,-0.079,-0.0786,-0.0843,-0.0844,-0.0845,-0.0869,0,-0.0341,-0.0284,-0.0304,-0.0265,-0.0251,-0.0309,-0.0313,-0.0349,-0.0394,-0.0417,-0.0506,-0.0528,-0.0607,-0.0623,-0.0689,-0.0765,-0.081,-0.0788,-0.0882,-0.0884,-0.0807,-0.0789,-0.0716,-0.0724,-0.0873,-0.0873,-0.0874,0,-0.0255,-0.0235,-0.018,-0.0184,-0.0182,-0.0172,-0.02,-0.0209,-0.0266,-0.0298,-0.0357,-0.0417,-0.0493,-0.0564,-0.0703,-0.0683,-0.0769,-0.0841,-0.0844,-0.078,-0.0807,-0.0757,-0.0726,-0.0955,-0.088,-0.088,-0.0879,0,-0.0184,-0.0149,-0.0109,-0.0103,-0.0116,-0.0107,-0.0123,-0.0165,-0.0157,-0.0218,-0.0205,-0.0328,-0.0355,-0.0504,-0.0637,-0.0676,-0.0772,-0.0849,-0.0855,-0.0849,-0.0811,-0.0799,-0.1006,-0.0948,-0.0948,-0.0948,-0.0948,0,-0.01,-0.0068,-0.0071,-0.0045,-0.0001,-0.0037,0.0003,-0.0034,-0.0046,0.0006,-0.0131,-0.0097,-0.0342,-0.0419,-0.0586,-0.0695,-0.0733,-0.083,-0.0849,-0.079,-0.0777,-0.0993,-0.1116,-0.0948,-0.0948,-0.0948,-0.0948,0,-0.0028,-0.0023,0.002,0.0026,0.0038,0.0066,0.0097,0.013,0.0102,0.017,0.0166,0.0079,-0.0002,-0.0217,-0.0426,-0.0582,-0.0821,-0.0763,-0.0649,-0.0654,-0.0881,-0.1001,-0.116,-0.1263,-0.0788,-0.0786,-0.0785,0,0.0011,0.0045,0.0081,0.012,0.0131,0.0172,0.0219,0.0205,0.026,0.0313,0.0372,0.0319,0.0341,0.0078,-0.0206,-0.0455,-0.0708,-0.0589,-0.0666,-0.0862,-0.1015,-0.1108,-0.1194,-0.0604,-0.06,-0.0598,-0.0596,0,0.0074,0.009,0.0123,0.021,0.0272,0.0343,0.0413,0.0487,0.0517,0.0615,0.0756,0.0789,0.0577,0.0376,0.0015,-0.0182,-0.0716,-0.0543,-0.0805,-0.0916,-0.0977,-0.1093,-0.0606,-0.0574,-0.0576,-0.0578,-0.0579,-0.058,0.0118,0.0156,0.0215,0.0301,0.0388,0.0519,0.0615,0.0731,0.0891,0.1093,0.1094,0.1249,0.0867,0.0418,0.0085,-0.0478,-0.0533,-0.0686,-0.0821,-0.0903,-0.099,-0.0415,-0.0369,-0.037,-0.0371,-0.0372,-0.0372,0,0.0171,0.0224,0.0305,0.0426,0.0558,0.0581,0.0758,0.0894,0.1149,0.138,0.1559,0.1552,0.1072,0.0518,-0.0236,-0.0694,-0.0914,-0.0973,-0.1154,-0.1237,-0.0773,-0.0754,-0.0719,-0.0719,-0.0718,-0.0718,-0.0718,-0.0718,0.0202,0.0293,0.0341,0.0562,0.0665,0.0865,0.0988,0.1213,0.1418,0.1783,0.198,0.2064,0.1652,0.0193,-0.0854,-0.1111,-0.1492,-0.1504,-0.1751,-0.1504,-0.149,-0.1478,-0.1494,-0.1614,-0.1616,-0.2157,-0.2162,-0.2166]}],[{"header":{"parameterUnit":"m.s-1","parameterCategory":2,"la1":30.2991,"la2":30.254,"lo1":-89.0895,"lo2":-89.0444,"dx":0.0017,"dy":0.0017,"nx":28,"ny":28,"refTime":"2022-11-07T03:00:00:Z","depth":"2","parameterNumber":2,"parameterNumberName":"U-component_of_CURRENTS"},"data":[0,0,0,0,0,0,0,0,0,0,0,0,0,0,0,0,0,0,0,0,0,0,0,0,0,0,0,0,0,0,0,0,0,0,0,0,0,0,0,0,0,0,0,0,0,0,0,0,0,0,0,0,0,0,0,0,0,0,0.2361,0.2362,0,0.2413,0.2413,0.2413,0.2421,0.2421,0.2421,0.2421,0.2466,0.2467,0.2468,0,0,0,0,0,0,0,0,0,0,0,0,0,0.2276,0.2277,0.2361,0.2362,0.2363,0.2413,0.2413,0.2413,0.2421,0.2421,0.2421,0.2421,0.2466,0.2467,0.2468,0,0,0,0,0,0,0,0,0,0,0,0,0,0.2315,0.2278,0.2361,0.2377,0.2379,0.2413,0.2413,0.2413,0.2421,0.2421,0.2421,0.2421,0.2465,0.2467,0.2469,0.2481,0,0,0.2474,0.2475,0,0,0,0,0,0,0,0,0.2312,0.2317,0.2373,0.2376,0.2378,0.2415,0.24,0.2437,0.2421,0.24,0.2421,0.2421,0.2451,0.2454,0.2457,0.2483,0.2485,0.2474,0.2476,0.2476,0.2477,0,0,0,0,0,0,0,0.231,0.2315,0.2377,0.2375,0.2378,0.2384,0.2389,0.2407,0.2421,0.2402,0.2404,0.2417,0.2452,0.2455,0.2459,0.2485,0.2474,0.2476,0.2477,0.2478,0.258,0.2581,0,0,0,0,0,0,0.2313,0.2312,0.2375,0.2379,0.235,0.2386,0.2391,0.2399,0.2421,0.2426,0.2417,0.2417,0.2452,0.2456,0.246,0.2533,0.2476,0.2478,0.2479,0.2578,0.258,0.2582,0,0,0,0,0,0,0.2311,0.2318,0.2373,0.2351,0.2359,0.2388,0.2397,0.24,0.242,0.2434,0.2438,0.2435,0.2453,0.2458,0.2491,0.2533,0.2479,0.2481,0.2576,0.2579,0.2581,0.2643,0,0,0,0,0,0,0.2308,0.2316,0.2333,0.2351,0.2361,0.24,0.2397,0.2401,0.243,0.2431,0.2451,0.2454,0.2453,0.2488,0.2493,0.2534,0.2482,0.2574,0.2577,0.258,0.2639,0.2647,0.2654,0,0,0,0,0,0.2305,0.2327,0.2334,0.2342,0.2379,0.2401,0.2406,0.2423,0.2431,0.244,0.2458,0.2454,0.2511,0.2491,0.2496,0.2539,0.2573,0.2576,0.258,0.2635,0.2645,0.2654,0,0,0,0,0,0,0.2303,0.2331,0.2338,0.237,0.2388,0.2405,0.2428,0.2435,0.2456,0.2466,0.247,0.2475,0.2526,0.252,0.2498,0.2577,0.2543,0.2548,0.2584,0.2593,0.2601,0.2629,0.2483,0,0,0,0,0,0.231,0.2328,0.2355,0.2378,0.2395,0.2414,0.2431,0.244,0.2459,0.2469,0.2483,0.2506,0.2543,0.2557,0.2581,0.2616,0.2635,0.2649,0.2656,0.2663,0.269,0.2737,0.2751,0.2594,0.2594,0.2593,0,0,0.2313,0.2334,0.2344,0.2378,0.2398,0.2429,0.2423,0.2454,0.2481,0.2472,0.2516,0.2537,0.2561,0.2608,0.263,0.2607,0.2719,0.2668,0.2673,0.2697,0.2742,0.2757,0.2771,0.2596,0.2596,0.2595,0,0,0.2325,0.2352,0.2372,0.2395,0.2434,0.245,0.2464,0.249,0.2508,0.2546,0.2562,0.2607,0.2638,0.2673,0.2694,0.2758,0.2764,0.2764,0.2822,0.2866,0.288,0.2892,0.2942,0.2958,0.276,0.2761,0.2761,0,0.2337,0.2362,0.2381,0.2412,0.2445,0.2464,0.25,0.2522,0.2552,0.2582,0.2568,0.2666,0.2677,0.2765,0.2789,0.278,0.2805,0.2782,0.2877,0.2889,0.2901,0.2949,0.2966,0.2764,0.2764,0.2763,0.2763,0,0.2352,0.2391,0.241,0.2456,0.249,0.2525,0.2564,0.2592,0.2619,0.2645,0.2731,0.2757,0.2819,0.2829,0.2831,0.2929,0.2921,0.2886,0.2853,0.292,0.2967,0.2983,0.2769,0.2768,0.2767,0.2766,0,0,0.2342,0.241,0.242,0.2452,0.2523,0.2545,0.2608,0.267,0.2729,0.2759,0.2839,0.2907,0.2934,0.2961,0.2977,0.3016,0.3113,0.2991,0.2991,0.3042,0.3227,0.3176,0.3188,0.3091,0.3094,0.3096,0.3229,0,0.2358,0.2415,0.2453,0.2519,0.2559,0.2611,0.2688,0.2746,0.2789,0.2863,0.2914,0.2994,0.2981,0.3025,0.307,0.3114,0.316,0.3082,0.3154,0.3157,0.3104,0.3207,0.2962,0.3055,0.3245,0.3248,0.3249,0,0.2362,0.2404,0.2471,0.2574,0.2603,0.2652,0.2767,0.283,0.2938,0.2988,0.3066,0.3098,0.3203,0.3154,0.3283,0.3235,0.3249,0.3262,0.3266,0.3213,0.3137,0.3018,0.3078,0.3277,0.3275,0.3273,0.3271,0,0.2328,0.2417,0.2473,0.2503,0.2625,0.2676,0.2747,0.2866,0.2944,0.3058,0.3122,0.3236,0.3305,0.3351,0.3393,0.3344,0.3512,0.3435,0.3405,0.3401,0.3207,0.3181,0.3515,0.3514,0.3514,0.3514,0.3513,0,0.233,0.2372,0.2461,0.2488,0.2585,0.2676,0.2796,0.2876,0.3023,0.312,0.3188,0.3283,0.3355,0.344,0.3453,0.3513,0.3567,0.3459,0.3446,0.3221,0.3196,0.3388,0.3372,0.3519,0.3518,0.3517,0.3516,0,0.2288,0.2348,0.2406,0.2524,0.2568,0.263,0.2804,0.2885,0.3036,0.3155,0.3196,0.3352,0.346,0.3522,0.3616,0.3592,0.364,0.3633,0.3377,0.3331,0.348,0.3466,0.3617,0.3616,0.3616,0.3616,0.3616,0,0.2274,0.2301,0.2401,0.244,0.2493,0.2606,0.2698,0.287,0.2944,0.3187,0.3226,0.3387,0.3449,0.3604,0.3609,0.3645,0.3669,0.3427,0.3279,0.3527,0.3498,0.3484,0.347,0.3049,0.3044,0.304,0.3037,0,0.2242,0.2275,0.2322,0.2405,0.2476,0.256,0.2678,0.2739,0.2939,0.3044,0.3203,0.328,0.3437,0.3376,0.3436,0.3414,0.3402,0.3346,0.3695,0.3058,0.3,0.2969,0.2973,0.3002,0.3005,0.3008,0.301,0.3011,0.2212,0.223,0.2295,0.2358,0.2437,0.2484,0.2511,0.2618,0.2723,0.2828,0.3022,0.3064,0.3156,0.311,0.3058,0.3041,0.3243,0.3096,0.3104,0.3118,0.3025,0.297,0.2949,0.2952,0.2955,0.2957,0.2959,0,0.2172,0.2193,0.2248,0.2298,0.2326,0.2415,0.248,0.2458,0.2488,0.2628,0.2717,0.2568,0.2561,0.2653,0.2582,0.261,0.2536,0.25,0.2377,0.2418,0.2453,0.2319,0.206,0.2056,0.2053,0.205,0,0,0.2155,0.2168,0.2182,0.2173,0.2219,0.2214,0.2221,0.218,0.2228,0.2194,0.2224,0.2424,0.2587,0.2269,0.2265,0.2149,0.2246,0.2069,0.2807,0.2703,0.2732,0.2835,0.2683,0,0,0,0,0]},{"header":{"parameterUnit":"m.s-1","parameterCategory":2,"la1":30.2991,"la2":30.254,"lo1":-89.0895,"lo2":-89.0444,"dx":0.0017,"dy":0.0017,"nx":28,"ny":28,"refTime":"2022-11-07T03:00:00:Z","depth":"2","parameterNumber":3,"parameterNumberName":"V-component_of_CURRENTS"},"data":[0,0,0,0,0,0,0,0,0,0,0,0,0,0,0,0,0,0,0,0,0,0,0,0,0,0,0,0,0,0,0,0,0,0,0,0,0,0,0,0,0,0,0,0,0,0,0,0,0,0,0,0,0,0,0,0,0,0,0.0097,0.0096,0,0.0004,0.0003,0.0001,-0.0067,-0.0067,-0.0067,-0.0067,-0.0167,-0.0169,-0.0172,0,0,0,0,0,0,0,0,0,0,0,0,0,0.0148,0.0147,0.0097,0.0096,0.0095,0.0004,0.0002,0.0001,-0.0067,-0.0067,-0.0067,-0.0067,-0.0166,-0.0169,-0.0172,0,0,0,0,0,0,0,0,0,0,0,0,0,0.0094,0.0147,0.0097,0.0054,0.0049,0.0005,0.0002,0.0,-0.0067,-0.0067,-0.0067,-0.0067,-0.0165,-0.0168,-0.0172,-0.019,0,0,-0.0183,-0.0185,0,0,0,0,0,0,0,0,0.0097,0.0091,0.0061,0.0057,0.0052,-0.0016,-0.0016,-0.0062,-0.0067,-0.0027,-0.0067,-0.0068,-0.0114,-0.0122,-0.0145,-0.0194,-0.0198,-0.0184,-0.0186,-0.0188,-0.0189,0,0,0,0,0,0,0,0.0101,0.0094,0.0056,0.006,0.0055,0.0016,0.0008,-0.0026,-0.0071,-0.0031,-0.0035,-0.0038,-0.0117,-0.0141,-0.0148,-0.02,-0.0184,-0.0187,-0.0189,-0.0191,-0.0262,-0.0262,0,0,0,0,0,0,0.0125,0.0098,0.0059,0.0053,0.0079,0.0016,0.0007,0.0002,-0.0071,-0.0081,-0.0038,-0.0041,-0.0135,-0.0143,-0.0151,-0.017,-0.0188,-0.0191,-0.0193,-0.0263,-0.0262,-0.0262,0,0,0,0,0,0,0.0126,0.0122,0.0062,0.0077,0.0067,0.0017,0.0011,0.0001,-0.003,-0.0075,-0.0087,-0.0058,-0.0135,-0.0146,-0.0181,-0.0174,-0.0193,-0.0196,-0.0263,-0.0262,-0.0262,-0.0211,0,0,0,0,0,0,0.0128,0.0123,0.0116,0.0079,0.0068,0.0042,0.0011,-0.0001,-0.0029,-0.0035,-0.0096,-0.0106,-0.0136,-0.0175,-0.0185,-0.018,-0.0199,-0.0263,-0.0263,-0.0262,-0.0213,-0.0209,-0.0205,0,0,0,0,0,0.013,0.0125,0.0117,0.0111,0.0064,0.0043,0.0033,-0.0008,-0.003,-0.0039,-0.008,-0.0104,-0.0178,-0.0178,-0.0189,-0.0185,-0.0264,-0.0263,-0.0262,-0.0215,-0.021,-0.0205,0,0,0,0,0,0,0.0138,0.0117,0.0107,0.0094,0.0075,0.0033,0.0016,-0.0008,-0.0051,-0.006,-0.0107,-0.0119,-0.0148,-0.0172,-0.0172,-0.0203,-0.0222,-0.0223,-0.0182,-0.0178,-0.0174,-0.0159,-0.0202,0,0,0,0,0,0.0141,0.0137,0.0112,0.0104,0.0094,0.0054,0.0036,0.0014,-0.0022,-0.0043,-0.0078,-0.0117,-0.0153,-0.0169,-0.0204,-0.0223,-0.0246,-0.0225,-0.0221,-0.0217,-0.0212,-0.0244,-0.0243,-0.0259,-0.0259,-0.0259,0,0,0.0144,0.0133,0.0129,0.0107,0.0083,0.008,0.0041,0.002,0.0017,-0.0045,-0.0065,-0.0109,-0.0157,-0.0179,-0.0192,-0.0198,-0.0224,-0.0216,-0.0213,-0.021,-0.0243,-0.0242,-0.0241,-0.0259,-0.0259,-0.0259,0,0,0.0159,0.0137,0.0141,0.0132,0.011,0.0089,0.0087,0.0051,0.0031,0.0007,-0.0037,-0.0075,-0.0123,-0.0154,-0.0178,-0.0172,-0.0206,-0.018,-0.0145,-0.0176,-0.0175,-0.0174,-0.0195,-0.0197,-0.0172,-0.0172,-0.0172,0,0.0159,0.0168,0.0138,0.0145,0.0145,0.01,0.0112,0.0084,0.0045,0.004,0.0012,-0.0064,-0.0111,-0.0138,-0.0141,-0.0163,-0.0183,-0.016,-0.0171,-0.0171,-0.0171,-0.0193,-0.0195,-0.017,-0.017,-0.017,-0.017,0,0.0188,0.0191,0.0193,0.0194,0.0187,0.0187,0.0162,0.0154,0.0124,0.0098,0.0063,-0.0007,-0.0047,-0.007,-0.0112,-0.0131,-0.0145,-0.0166,-0.0181,-0.0166,-0.019,-0.0194,-0.0166,-0.0167,-0.0168,-0.0168,0,0,0.0201,0.0211,0.0213,0.0236,0.0215,0.0223,0.0221,0.0214,0.0224,0.0166,0.0168,0.0081,0.0038,0.0008,-0.0048,-0.0083,-0.0113,-0.0123,-0.0125,-0.014,-0.0174,-0.0192,-0.0198,-0.0137,-0.0137,-0.0137,-0.0188,0,0.0233,0.0273,0.0262,0.0305,0.0324,0.0301,0.0304,0.0292,0.0272,0.0263,0.0181,0.015,0.0069,0.0048,-0.0004,-0.0085,-0.0121,-0.0097,-0.019,-0.0192,-0.0207,-0.0202,-0.0176,-0.0219,-0.0191,-0.0192,-0.0193,0,0.0268,0.0295,0.0341,0.0379,0.0383,0.0395,0.0421,0.0425,0.0394,0.0373,0.0326,0.0258,0.0185,0.0117,-0.0013,0.0007,-0.008,-0.0146,-0.015,-0.0187,-0.0217,-0.0232,-0.0227,-0.0199,-0.0198,-0.0198,-0.0197,0,0.0316,0.0356,0.0402,0.0414,0.0435,0.0456,0.0467,0.0457,0.0484,0.0451,0.0462,0.035,0.0314,0.0181,0.0027,0.0008,-0.0107,-0.0147,-0.0242,-0.0244,-0.025,-0.0252,-0.0234,-0.0234,-0.0233,-0.0233,-0.0233,0,0.0361,0.0404,0.0432,0.0461,0.0524,0.0515,0.0575,0.0574,0.0581,0.0635,0.0522,0.0538,0.0328,0.0233,0.0071,-0.0089,-0.0074,-0.0234,-0.026,-0.0231,-0.0231,-0.0238,-0.0237,-0.0235,-0.0235,-0.0234,-0.0234,0,0.0407,0.0421,0.0487,0.0527,0.0549,0.0598,0.0663,0.0713,0.0702,0.0776,0.077,0.0685,0.0559,0.035,0.0148,-0.0007,-0.0175,-0.0234,-0.0184,-0.0204,-0.0304,-0.0301,-0.0351,-0.0352,-0.0353,-0.0354,-0.0355,0,0.0433,0.0469,0.0547,0.0599,0.0621,0.0693,0.0747,0.0771,0.0843,0.0883,0.0934,0.0829,0.0776,0.0463,0.0161,-0.0123,-0.0156,-0.0271,-0.0317,-0.0297,-0.0317,-0.0312,-0.0307,-0.0302,-0.0302,-0.0302,-0.0302,0,0.0491,0.0513,0.0571,0.0672,0.0747,0.085,0.0938,0.1014,0.1066,0.1119,0.1185,0.1139,0.0841,0.0543,0.0143,-0.0041,-0.0234,-0.0283,-0.0269,-0.0276,-0.0255,-0.0273,-0.0269,-0.0303,-0.0303,-0.0303,-0.0303,-0.0303,0.0533,0.0586,0.0659,0.0764,0.0857,0.0995,0.1092,0.1193,0.1312,0.1397,0.1358,0.1289,0.096,0.0431,0.01,-0.0247,-0.0239,-0.0357,-0.0355,-0.0353,-0.0339,-0.0321,-0.0377,-0.0378,-0.0378,-0.0378,-0.0378,0,0.0592,0.0656,0.0751,0.088,0.0995,0.1036,0.1215,0.1309,0.1459,0.1505,0.1523,0.1211,0.0865,0.0494,-0.0035,-0.0347,-0.0366,-0.0423,-0.0387,-0.0383,-0.0381,-0.0367,-0.0414,-0.0415,-0.0416,-0.0417,0,0,0.0625,0.0728,0.0784,0.0979,0.1071,0.124,0.135,0.1479,0.1551,0.1583,0.1531,0.1414,0.0969,0.0586,0.0164,-0.0133,-0.018,-0.0178,-0.0115,-0.0019,-0.0012,-0.0309,-0.0279,0,0,0,0,0]}],[{"header":{"parameterUnit":"m.s-1","parameterCategory":2,"la1":30.2991,"la2":30.254,"lo1":-89.0895,"lo2":-89.0444,"dx":0.0017,"dy":0.0017,"nx":28,"ny":28,"refTime":"2022-11-07T03:00:00:Z","depth":"4","parameterNumber":2,"parameterNumberName":"U-component_of_CURRENTS"},"data":[0,0,0,0,0,0,0,0,0,0,0,0,0,0,0,0,0,0,0,0,0,0,0,0,0,0,0,0,0,0,0,0,0,0,0,0,0,0,0,0,0,0,0,0,0,0,0,0,0,0,0,0,0,0,0,0,0,0,0.1322,0.1323,0,0.1421,0.1422,0.1423,0.1494,0.1495,0.1496,0.1496,0.1569,0.1571,0.1572,0,0,0,0,0,0,0,0,0,0,0,0,0,0.1245,0.1246,0.1322,0.1323,0.1325,0.1421,0.1422,0.1424,0.1494,0.1495,0.1496,0.1496,0.1569,0.1571,0.1572,0,0,0,0,0,0,0,0,0,0,0,0,0,0.1305,0.1246,0.1322,0.1371,0.1377,0.1421,0.1422,0.1424,0.1494,0.1495,0.1496,0.1497,0.1568,0.157,0.1572,0.1568,0,0,0.1579,0.158,0,0,0,0,0,0,0,0,0.1301,0.1307,0.1363,0.1368,0.1374,0.1446,0.1422,0.1471,0.1494,0.145,0.1496,0.1497,0.1525,0.1531,0.1548,0.1572,0.1575,0.1579,0.158,0.1581,0.1582,0,0,0,0,0,0,0,0.1297,0.1304,0.1362,0.1364,0.1371,0.1406,0.1415,0.1432,0.1481,0.1454,0.1459,0.147,0.1528,0.1546,0.155,0.1576,0.1579,0.1581,0.1582,0.1583,0.1685,0.1686,0,0,0,0,0,0,0.1281,0.13,0.1358,0.1364,0.1339,0.1406,0.1416,0.1422,0.1482,0.1492,0.1469,0.1472,0.1542,0.1548,0.1553,0.1631,0.1581,0.1583,0.1585,0.1683,0.1685,0.1686,0,0,0,0,0,0,0.1279,0.1285,0.1354,0.1335,0.1346,0.1406,0.1413,0.1424,0.1475,0.1493,0.1503,0.1512,0.1543,0.155,0.1605,0.1631,0.1584,0.1586,0.1681,0.1684,0.1686,0.1736,0,0,0,0,0,0,0.1276,0.1283,0.1303,0.1333,0.1346,0.1401,0.1412,0.1425,0.1478,0.1485,0.1533,0.1539,0.1544,0.1602,0.1607,0.1634,0.1588,0.168,0.1682,0.1685,0.1733,0.174,0.1746,0,0,0,0,0,0.1273,0.129,0.1303,0.1311,0.1364,0.1402,0.1413,0.1458,0.1479,0.1507,0.1546,0.1539,0.1622,0.1605,0.161,0.1638,0.1678,0.1682,0.1685,0.173,0.1739,0.1746,0,0,0,0,0,0,0.1263,0.13,0.1314,0.1341,0.1378,0.1414,0.1452,0.1476,0.1529,0.1547,0.1562,0.1571,0.1627,0.1627,0.1608,0.1675,0.1647,0.1651,0.1679,0.1687,0.1694,0.1696,0.159,0,0,0,0,0,0.1268,0.1298,0.1328,0.1356,0.1376,0.1419,0.1448,0.1477,0.1518,0.1545,0.1575,0.1608,0.1638,0.166,0.1684,0.1723,0.1734,0.1743,0.175,0.1755,0.1761,0.1812,0.1824,0.1697,0.1697,0.1697,0,0,0.1273,0.1298,0.1316,0.1358,0.1393,0.1427,0.1441,0.1493,0.1532,0.1541,0.1614,0.1636,0.1655,0.1702,0.1726,0.1711,0.1798,0.1759,0.1764,0.1767,0.1817,0.183,0.1841,0.1699,0.1699,0.1698,0,0,0.1289,0.132,0.1349,0.1382,0.1437,0.146,0.148,0.1532,0.1572,0.1632,0.1649,0.1693,0.174,0.176,0.1773,0.1829,0.1832,0.1837,0.1873,0.1923,0.1934,0.1944,0.1973,0.1985,0.1839,0.1839,0.1839,0,0.1296,0.1328,0.1365,0.14,0.143,0.1475,0.1508,0.1554,0.162,0.1652,0.1664,0.1751,0.1766,0.182,0.1841,0.1844,0.187,0.1841,0.1932,0.1942,0.1951,0.1979,0.1992,0.1842,0.1842,0.1841,0.1841,0,0.1326,0.1362,0.1385,0.144,0.1477,0.1518,0.1569,0.1618,0.1665,0.1707,0.1787,0.182,0.1873,0.1879,0.1879,0.1949,0.1945,0.1935,0.1911,0.1967,0.1993,0.2005,0.1846,0.1845,0.1844,0.1844,0,0,0.1307,0.1389,0.1399,0.1425,0.1502,0.1526,0.1596,0.1659,0.1713,0.1783,0.1854,0.1907,0.1943,0.1961,0.1974,0.2007,0.2089,0.2004,0.2006,0.2032,0.2199,0.2078,0.2079,0.2104,0.2106,0.2108,0.2191,0,0.132,0.1377,0.1419,0.1474,0.1505,0.1562,0.1616,0.1685,0.176,0.1843,0.1899,0.1978,0.1972,0.2014,0.2053,0.2084,0.2124,0.2067,0.2142,0.2144,0.2028,0.209,0.2116,0.22,0.2203,0.2205,0.2206,0,0.1328,0.1367,0.1421,0.1483,0.1502,0.1547,0.1636,0.1695,0.1817,0.188,0.1977,0.2041,0.2126,0.2109,0.2206,0.2177,0.22,0.2209,0.2213,0.2089,0.2045,0.2133,0.2228,0.2226,0.2225,0.2223,0.2222,0,0.1285,0.136,0.1399,0.1426,0.151,0.1549,0.1601,0.1714,0.1775,0.193,0.2008,0.2113,0.2194,0.2242,0.2289,0.2266,0.2377,0.2345,0.2255,0.2247,0.2308,0.2296,0.2414,0.2414,0.2414,0.2414,0.2413,0,0.1265,0.1297,0.1388,0.141,0.1461,0.1533,0.1615,0.1686,0.1811,0.1895,0.2041,0.2122,0.2238,0.232,0.233,0.2335,0.2423,0.2273,0.2266,0.2326,0.2316,0.2316,0.2304,0.2417,0.2416,0.2416,0.2415,0,0.1206,0.127,0.1317,0.1409,0.1446,0.1486,0.1609,0.1666,0.1805,0.1927,0.1987,0.216,0.2273,0.2361,0.2443,0.2384,0.2393,0.2371,0.244,0.2433,0.2217,0.2206,0.2274,0.227,0.2267,0.2265,0.2263,0,0.1178,0.12,0.1304,0.1332,0.1381,0.1463,0.152,0.1652,0.1716,0.1926,0.1966,0.2151,0.2257,0.2282,0.2367,0.24,0.2371,0.2355,0.227,0.2219,0.2206,0.22,0.2194,0.2258,0.2257,0.2257,0.2256,0,0.1116,0.1166,0.1202,0.1266,0.1331,0.1391,0.1483,0.1515,0.1673,0.1826,0.1922,0.2007,0.2137,0.2205,0.2265,0.227,0.2348,0.2324,0.2329,0.2248,0.2201,0.219,0.2187,0.2246,0.2247,0.2248,0.2249,0,0.1067,0.1075,0.1131,0.1176,0.1247,0.128,0.135,0.1427,0.1508,0.1731,0.1755,0.1955,0.2108,0.214,0.2178,0.2198,0.216,0.207,0.2087,0.2099,0.2005,0.1917,0.188,0,0,0,0,0,0.1009,0.1007,0.1034,0.1076,0.114,0.1192,0.1298,0.1373,0.1541,0.1566,0.1652,0.1767,0.1872,0.196,0.1948,0.2098,0.2158,0.2072,0.2059,0.2189,0.2201,0.2106,0,0,0,0,0,0,0.0966,0.0989,0.0997,0.0985,0.1,0.1068,0.1137,0.1253,0.1267,0.1447,0.1514,0.1661,0.1786,0.1873,0.1919,0.1946,0.19,0.2189,0.2184,0.2182,0.2193,0.2203,0.211,0,0,0,0,0]},{"header":{"parameterUnit":"m.s-1","parameterCategory":2,"la1":30.2991,"la2":30.254,"lo1":-89.0895,"lo2":-89.0444,"dx":0.0017,"dy":0.0017,"nx":28,"ny":28,"refTime":"2022-11-07T03:00:00:Z","depth":"4","parameterNumber":3,"parameterNumberName":"V-component_of_CURRENTS"},"data":[0,0,0,0,0,0,0,0,0,0,0,0,0,0,0,0,0,0,0,0,0,0,0,0,0,0,0,0,0,0,0,0,0,0,0,0,0,0,0,0,0,0,0,0,0,0,0,0,0,0,0,0,0,0,0,0,0,0,0.0267,0.0266,0,0.0204,0.0203,0.0202,0.0166,0.0166,0.0166,0.0166,0.0087,0.0085,0.0083,0,0,0,0,0,0,0,0,0,0,0,0,0,0.0302,0.0301,0.0267,0.0266,0.0266,0.0204,0.0203,0.0202,0.0166,0.0166,0.0166,0.0166,0.0088,0.0085,0.0083,0,0,0,0,0,0,0,0,0,0,0,0,0,0.0266,0.0301,0.0267,0.0241,0.0238,0.0204,0.0203,0.0202,0.0166,0.0166,0.0166,0.0166,0.0089,0.0086,0.0082,0.0063,0,0,0.0073,0.0072,0,0,0,0,0,0,0,0,0.0268,0.0265,0.0246,0.0243,0.024,0.0194,0.0187,0.0155,0.0166,0.0192,0.0166,0.0166,0.0122,0.0116,0.0103,0.006,0.0056,0.0073,0.0071,0.0069,0.0068,0,0,0,0,0,0,0,0.0271,0.0267,0.024,0.0245,0.0241,0.0214,0.021,0.018,0.0156,0.0189,0.0187,0.0182,0.012,0.0106,0.0101,0.0055,0.0073,0.007,0.0068,0.0067,0.0016,0.0016,0,0,0,0,0,0,0.0285,0.027,0.0242,0.0239,0.0256,0.0214,0.0209,0.0207,0.0157,0.015,0.0182,0.0181,0.0111,0.0104,0.0098,0.0095,0.0069,0.0066,0.0065,0.0015,0.0016,0.0017,0,0,0,0,0,0,0.0286,0.0283,0.0245,0.0254,0.0247,0.0214,0.0212,0.0206,0.0195,0.0152,0.0144,0.0178,0.0111,0.0102,0.0074,0.0091,0.0065,0.0062,0.0015,0.0016,0.0016,0.0075,0,0,0,0,0,0,0.0287,0.0284,0.0286,0.0255,0.0247,0.0228,0.0212,0.0205,0.0193,0.019,0.0146,0.0138,0.011,0.0079,0.0071,0.0086,0.006,0.0014,0.0015,0.0016,0.0073,0.0078,0.0082,0,0,0,0,0,0.0288,0.0286,0.0286,0.0283,0.0252,0.0228,0.0221,0.0196,0.0193,0.0186,0.0159,0.014,0.008,0.0076,0.0067,0.0082,0.0014,0.0015,0.0016,0.007,0.0077,0.0082,0,0,0,0,0,0,0.0294,0.0281,0.0281,0.0273,0.0257,0.0222,0.0211,0.0202,0.0175,0.0173,0.0137,0.0127,0.0113,0.0086,0.0084,0.0071,0.0048,0.0047,0.0092,0.0098,0.0103,0.0121,0.0057,0,0,0,0,0,0.0301,0.03,0.0282,0.0276,0.027,0.0245,0.0233,0.022,0.0194,0.0182,0.0155,0.0129,0.011,0.0095,0.007,0.0055,0.0024,0.0062,0.0067,0.0071,0.008,0.0046,0.0049,0.002,0.002,0.002,0,0,0.0302,0.0294,0.0294,0.0279,0.0262,0.026,0.0237,0.0222,0.0224,0.0178,0.0168,0.0143,0.0109,0.0097,0.0089,0.0077,0.006,0.0073,0.0077,0.0083,0.0048,0.0051,0.0053,0.0021,0.0021,0.0021,0,0,0.0302,0.0298,0.0299,0.0292,0.0277,0.0266,0.0267,0.0243,0.0235,0.022,0.0197,0.0182,0.0142,0.0129,0.0116,0.0132,0.0089,0.0127,0.0164,0.0131,0.0133,0.0135,0.0088,0.0085,0.0128,0.0129,0.0129,0,0.0306,0.031,0.0294,0.0295,0.0298,0.0276,0.0285,0.0271,0.0243,0.0247,0.0224,0.0191,0.0161,0.016,0.0167,0.0145,0.0111,0.0145,0.0138,0.0139,0.0139,0.0091,0.0086,0.0132,0.0131,0.0131,0.0131,0,0.0307,0.0318,0.0316,0.0321,0.0319,0.032,0.0311,0.0312,0.0303,0.0293,0.0288,0.0244,0.0229,0.022,0.0194,0.0195,0.0164,0.0149,0.0124,0.0146,0.0093,0.0087,0.0136,0.0135,0.0134,0.0133,0,0,0.0303,0.0318,0.032,0.0345,0.0341,0.0345,0.0354,0.0364,0.0385,0.035,0.0365,0.0332,0.0313,0.0298,0.0268,0.0241,0.0209,0.02,0.0197,0.0156,0.0121,0.0084,0.0074,0.0188,0.0188,0.0188,0.0079,0,0.0315,0.0342,0.0342,0.038,0.0399,0.04,0.042,0.0426,0.0418,0.0422,0.0386,0.0381,0.0341,0.0336,0.0303,0.0236,0.0199,0.0239,0.0105,0.0101,0.0067,0.0068,0.0187,0.0075,0.0074,0.0073,0.0072,0,0.0319,0.0343,0.0384,0.0442,0.0451,0.0471,0.0516,0.0531,0.0529,0.0522,0.0504,0.0464,0.0427,0.0384,0.0278,0.0303,0.022,0.016,0.0154,0.0098,0.0054,0.005,0.0061,0.0062,0.0063,0.0064,0.0064,0,0.0337,0.0379,0.0424,0.0438,0.0486,0.0517,0.0547,0.0565,0.0592,0.0584,0.0587,0.0531,0.0499,0.04,0.0267,0.0271,0.0133,0.012,0.0006,0.0001,0.0041,0.0041,0.004,0.004,0.0041,0.0041,0.0041,0,0.0355,0.0394,0.0443,0.0469,0.0543,0.056,0.0631,0.065,0.067,0.0701,0.0644,0.063,0.0501,0.04,0.0281,0.0121,0.0137,0.0011,-0.0026,0.0066,0.007,0.0036,0.0037,0.0037,0.0038,0.0038,0.0039,0,0.0369,0.0396,0.0458,0.0524,0.0554,0.0609,0.0693,0.0739,0.0751,0.0781,0.0777,0.0697,0.0563,0.0415,0.024,0.0138,-0.0009,-0.0072,0.0026,-0.0004,-0.0124,-0.0118,-0.0202,-0.0205,-0.0206,-0.0208,-0.0209,0,0.038,0.0411,0.05,0.0547,0.0582,0.0667,0.073,0.0778,0.0817,0.0814,0.0821,0.0704,0.0627,0.0358,0.0196,-0.0042,-0.0076,-0.0154,-0.0125,-0.0119,-0.0147,-0.0139,-0.0131,-0.0212,-0.0213,-0.0213,-0.0214,0,0.0406,0.0436,0.0492,0.0584,0.066,0.0749,0.083,0.0858,0.0902,0.0909,0.0849,0.0708,0.0549,0.0344,0.0153,-0.0015,-0.0098,-0.0173,-0.017,-0.0144,-0.0132,-0.0156,-0.0146,-0.022,-0.0219,-0.0218,-0.0218,0,0.0429,0.0471,0.0541,0.0625,0.0716,0.0795,0.0843,0.0882,0.092,0.0907,0.0876,0.0712,0.062,0.0353,0.0178,0.0008,-0.0032,-0.0077,-0.0079,-0.0074,-0.0006,0.003,-0.0039,0,0,0,0,0,0.0449,0.0498,0.0575,0.0666,0.0751,0.0811,0.0895,0.0929,0.0957,0.0924,0.0904,0.0753,0.0486,0.0369,0.0192,0.0132,-0.007,-0.0083,-0.0123,-0.0255,-0.0247,-0.0192,0,0,0,0,0,0,0.0463,0.0536,0.0576,0.0682,0.0745,0.085,0.0906,0.0929,0.0908,0.0902,0.0764,0.0705,0.0446,0.0589,0.0188,0.0135,0.0083,-0.0202,-0.0206,-0.0259,-0.0252,-0.0246,-0.0187,0,0,0,0,0]}]]